Tracking 19720 objects as of 26-Jun-2019
HD Live streaming from Space Station
objects crossing your sky now

FENGYUN 1C DEB

Track FENGYUN 1C DEB now!
10-day predictions


NORAD ID: 30483
Int'l Code: 1999-025AGV
Perigee: 511.6 km
Apogee: 648.2 km
Inclination: 99.0 °
Period: 96.1 minutes
Semi major axis: 6950 km
RCS: 0.0087 m2 (small)
Launch date: May 10, 1999
Source: People's Republic of China (PRC)
Launch site: Taiyaun Space Center, China (TSC)

Note: This is SATELLITE DEBRIS
aabbcc
Your satellite tracking list
Your tracking list is empty




NASA's NSSDC Master Catalog

Two Line Element Set (TLE):
1 30483U 99025AGV 19176.17603069  .00003123  00000-0  24521-3 0  9995
2 30483  98.9589 256.4017 0098300  54.3751 306.6574 14.98102771661800
Source of the keplerian elements: AFSPC